Location: Newark
(54.6833°N, 25.2833°E)
Time: 14:28:16
(UTC+00:00)

Altair - Pass Details

Date: 18 November 2019
Orbit: 1502 x 1682 km, 47.2° (Epoch: 06 December)

Event Time Altitude Azimuth Distance (km) Brightness Sun altitude
Rises 02:26:14 0° 231° (SW) 4,634 - -29.5°
Reaches altitude 10° 02:29:24 10° 226° (SW) 3,650 - -29.1°
Exits shadow 02:33:59 30° 206° (SSW) 2,432 8.2 -28.4°
Maximum altitude 02:37:52 44° 158° (SSE) 1,980 8.1 -27.9°
Drops below altitude 10° 02:46:28 10° 90° (E) 3,704 10.5 -26.6°
Sets 02:49:42 0° 85° (E) 4,708 11.4 -26.2°
